User: anonymous   Login
Location: Hains Lake
(37.8540°N, 99.8578°W)
Time: 14:13:28
(UTC+00:00)
Language:

Meteor 2-4 Rocket - Orbit

View from above orbital plane
View from above orbital plane
View from above satellite
View from above satellite

Ground track
Ground track

The orbit data is extracted from the following two-line orbital elements,

1 11289U 79021B   20056.14118130 -.00000030 +00000-0 -22629-4 0  9992
2 11289 081.2454 285.1470 0075242 324.9862 034.6374 14.11603293109252
Epoch (UTC): 25 February 2020 03:23:18
Eccentricity: 0.0075242
inclination: 81.2454°
perigee height: 799 km
apogee height: 908 km
right ascension of ascending node: 285.1470°
argument of perigee: 324.9862°
revolutions per day: 14.11603293
mean anomaly at epoch: 34.6374°
orbit number at epoch: 10925

The dashed part of the orbit path shows where the satellite is in the earth's shadow,  

DLR